Location: Codford Saint Peter
(51.1597°N, 2.0531°W)
Time: 13:04:43
(UTC+00:00)

Cosmos 909 Rocket - Pass Details

Date: 18 September 2020
Orbit: 991 x 2088 km, 65.9° (Epoch: 25 October)

Event Time Altitude Azimuth Distance (km) Brightness Sun altitude
Rises 21:37:30 0° 319° (NW) 4,000 8.4 -29.1°
Reaches altitude 10° 21:40:19 10° 321° (NW) 2,937 7.4 -29.4°
Enters shadow 21:46:59 79° 46° (NE) 1,026 4.0 -30.1°
